                ,  0.290,  0.386,  0.483,  0.580,  0.676,  0.773,  0.869,  0.966,  1.063,  1.159,  1.256,  1.352,  1.449,  1.545,  1.642,  1.739,  1.835,  1.932,  2.028,  2.125,  2.222,  2.318,  2.415,  2.511,  2.608,  2.705,  2.801,  2.898,  2.994,  3.091,  3.188,  3.284,  3.381,  3.477,  3.574,  3.671,  3.767,  3.864,  3.960,  4.057,  4.153,  4.250,  4.347,  4.443,  4.540,  4.636,  4.733,  4.830,  4.926,  5.023,  5.119,  5.216,  5.313,  5.409,  5.506,  5.602,  5.699,  5.796
2000/12/29 00:00,  999.0,    1.8,  999.0,  999.0,  999.0,    1.2,   -0.7,   -3.1,   -3.4,   -5.4,  999.0,  999.0,  999.0,  999.0,  999.0,  999.0,  999.0,  999.0,  999.0,  999.0,  999.0,  999.0,  999.0,  999.0,  999.0,  999.0,  999.0,  999.0,  999.0,  999.0,  999.0,  999.0,  999.0,  999.0,  999.0,  999.0,  999.0,  999.0,  999.0,  999.0,  999.0,  999.0,  999.0,  999.0,  999.0,  999.0,  999.0,  999.0,  999.0,  999.0,  999.0,  999.0,  999.0,  999.0,  999.0,  999.0,  999.0,  999.0
2000/12/29 00:10,  999.0,    0.1,   -0.4,    1.4,  999.0,   -0.1,   -1.0,   -1.2,   -1.7,   -3.7,   -3.2,  999.0,   -1.9,   -2.1,   -2.5,  999.0,  999.0,   -2.1,  999.0,  999.0,  999.0,  999.0,    6.1,  999.0,  999.0,    6.8,  999.0,  999.0,  999.0,  999.0,  999.0,  999.0,  999.0,  999.0,  999.0,  999.0,  999.0,  999.0,  999.0,  999.0,  999.0,  999.0,  999.0,  999.0,  999.0,  999.0,  999.0,  999.0,  999.0,  999.0,  999.0,  999.0,  999.0,  999.0,  999.0,  999.0,  999.0,  999.0
2000/12/29 00:20,  999.0,    1.2,   -0.2,    1.0,    3.1,    0.2,   -0.2,   -1.4,   -2.0,   -3.0,    1.2,  999.0,  999.0,  999.0,  999.0,  999.0,    9.9,  999.0,  999.0,   26.6,   28.7,  999.0,   31.0,   30.6,   32.9,   35.2,   34.2,   36.2,   36.2,  999.0,  999.0,  999.0,   41.3,   41.0,   42.1,   41.7,   41.2,  999.0,   42.2,   41.6,   42.0,   41.6,   41.6,   41.7,   41.9,   41.7,   41.9,  999.0,   41.6,   41.5,  999.0,  999.0,   42.0,  999.0,  999.0,  999.0,  999.0,  999.0
2000/12/29 00:30,  999.0,   -0.3,   -0.0,    1.3,   -0.0,   -1.1,   -0.7,   -0.9,   -3.1,   -3.9,  999.0,  999.0,  999.0,  999.0,  999.0,  999.0,  999.0,  999.0,  999.0,  999.0,  999.0,  999.0,  999.0,   29.8,   32.0,   34.0,   34.9,   36.0,   38.2,   39.2,   41.0,  999.0,   41.5,   41.9,   41.5,   42.2,   41.6,   41.7,   41.9,   41.3,   40.9,   41.8,   41.5,  999.0,   41.3,  999.0,   41.5,   42.6,   41.9,   42.1,  999.0,  999.0,  999.0,  999.0,  999.0,  999.0,  999.0,  999.0
2000/12/29 00:40,  999.0,    1.3,    1.2,    1.3,    0.3,    0.1,   -1.1,   -2.3,   -4.0,   -0.0,  999.0,  999.0,  999.0,   10.7,   13.3,  999.0,  999.0,  999.0,  999.0,   26.2,  999.0,  999.0,  999.0,   31.7,   32.5,   35.4,  999.0,   36.2,   38.0,   39.5,  999.0,   42.0,   42.0,   41.8,   42.1,   42.1,   41.3,   42.4,   42.2,  999.0,   41.1,   41.7,   42.0,   42.4,   41.8,  999.0,   42.3,   42.2,   42.7,   41.4,   42.5,   42.2,   41.6,  999.0,  999.0,  999.0,  999.0,  999.0
2000/12/29 00:50,  999.0,    0.9,    2.6,   -0.3,    0.6,    0.0,   -0.7,   -2.4,   -4.7,   -1.3,   -0.1,  999.0,  999.0,  999.0,  999.0,  999.0,  999.0,  999.0,  999.0,  999.0,  999.0,  999.0,  999.0,  999.0,   29.7,  999.0,  999.0,   34.0,   36.4,   39.4,   38.5,  999.0,   40.2,   41.2,   40.9,  999.0,   41.7,   41.3,   41.5,   41.0,   41.5,   42.0,   41.7,   41.8,   41.7,   42.6,   42.2,  999.0,   42.6,   42.7,  999.0,   42.2,  999.0,   41.7,  999.0,  999.0,  999.0,  999.0
2000/12/29 01:00,  999.0,   -1.2,    3.1,   -0.4,   -0.4,   -1.1,   -2.1,   -3.1,   -6.2,  999.0,   -3.4,  999.0,  999.0,  999.0,  999.0,  999.0,  999.0,  999.0,  999.0,  999.0,  999.0,  999.0,  999.0,   31.6,  999.0,   29.4,   30.0,   31.2,   33.2,   33.1,  999.0,   38.3,   37.0,  999.0,   39.0,   41.1,   40.9,   42.0,   41.2,   41.8,   41.6,   41.7,  999.0,   41.6,   41.4,   41.6,  999.0,   41.7,   42.1,   43.2,   41.8,   42.8,  999.0,  999.0,  999.0,  999.0,  999.0,  999.0
2000/12/29 01:10,  999.0,  999.0,    1.0,   -2.0,   -0.2,   -0.6,   -2.1,   -1.7,  999.0,  999.0,  999.0,  999.0,  999.0,  999.0,  999.0,  999.0,  999.0,  999.0,  999.0,  999.0,   25.2,  999.0,  999.0,   28.4,   29.2,   30.1,  999.0,   31.7,   31.7,   35.8,   36.5,   38.1,  999.0,   35.6,  999.0,  999.0,   42.7,   41.0,   42.2,   41.0,   42.0,   42.3,  999.0,  999.0,   42.1,   41.2,   41.4,  999.0,   41.6,   41.4,   41.8,  999.0,   42.1,  999.0,  999.0,  999.0,  999.0,   42.0
2000/12/29 01:20,  999.0,    2.6,  999.0,    1.3,    0.1,   -0.6,   -2.7,  999.0,  999.0,  999.0,  999.0,    4.5,  999.0,  999.0,  999.0,  999.0,  999.0,  999.0,  999.0,  999.0,  999.0,  999.0,  999.0,   26.3,   28.8,   31.9,   31.0,   35.8,   33.9,   34.4,   41.8,   41.8,   39.0,   41.8,   40.7,  999.0,  999.0,   41.9,  999.0,   41.9,   42.5,   41.8,   41.9,   41.7,   41.9,   42.2,   41.6,   42.0,   41.5,   42.1,   41.0,  999.0,  999.0,  999.0,  999.0,  999.0,  999.0,  999.0
2000/12/29 01:30,  999.0,  999.0,    5.1,   -0.2,    6.7,   -1.8,   -1.8,   -1.6,    1.6,   -0.2,  999.0,   21.4,  999.0,  999.0,  999.0,  999.0,   21.6,    0.2,  999.0,   27.1,  999.0,   29.2,   30.5,   32.0,  999.0,   36.1,   36.7,   36.1,   37.2,   38.9,   40.3,   41.4,  999.0,   41.5,   40.9,   42.0,   42.2,   41.6,   42.3,   41.9,  999.0,   41.3,   41.2,   41.9,  999.0,   41.7,  999.0,   41.5,   42.6,   42.6,  999.0,   41.8,  999.0,  999.0,  999.0,  999.0,  999.0,  999.0
2000/12/29 01:40,  999.0,    0.7,    1.1,    0.9,   -0.4,   -1.6,   -2.9,   -5.4,   -5.9,   -6.2,   -4.1,   -5.2,   -5.3,   -6.0,   -1.7,  999.0,   -2.9,   -2.1,   -0.9,  999.0,  999.0,  999.0,    1.1,  999.0,   31.1,  999.0,  999.0,  999.0,  999.0,  999.0,  999.0,  999.0,   42.0,   15.8,   41.4,  999.0,   41.9,  999.0,  999.0,   41.2,  999.0,  999.0,  999.0,  999.0,   42.1,   41.3,  999.0,  999.0,  999.0,  999.0,  999.0,  999.0,  999.0,  999.0,  999.0,  999.0,  999.0,  999.0
2000/12/29 01:50,  999.0,    0.1,   -0.4,    0.9,   -1.5,   -1.4,   -3.5,   -2.0,   -3.9,  999.0,  999.0,  999.0,  999.0,   -1.2,   -2.2,   -2.2,   -1.8,   -2.1,   -2.7,  999.0,  999.0,  999.0,  999.0,  999.0,  999.0,  999.0,  999.0,  999.0,  999.0,  999.0,  999.0,  999.0,  999.0,  999.0,  999.0,   38.4,   41.5,  999.0,   41.8,   42.3,  999.0,   42.1,  999.0,   42.6,   42.6,   43.3,   43.2,  999.0,  999.0,  999.0,  999.0,  999.0,  999.0,  999.0,  999.0,  999.0,  999.0,  999.0
2000/12/29 02:00,  999.0,   -0.5,    0.8,   -0.8,    0.6,   -1.0,   -2.0,   -2.9,   -5.8,   -4.2,  999.0,  999.0,  999.0,   -1.3,   -1.5,  999.0,   -0.9,    1.1,  999.0,  999.0,  999.0,  999.0,  999.0,  999.0,  999.0,  999.0,  999.0,  999.0,  999.0,  999.0,  999.0,  999.0,  999.0,  999.0,  999.0,  999.0,  999.0,  999.0,  999.0,  999.0,  999.0,  999.0,  999.0,  999.0,  999.0,  999.0,  999.0,  999.0,  999.0,  999.0,  999.0,  999.0,  999.0,  999.0,  999.0,  999.0,  999.0,  999.0
2000/12/29 02:10,  999.0,   -1.3,    0.3,    0.8,   -0.1,   -1.2,   -2.6,   -3.9,   -5.9,    0.1,   -0.0,  999.0,  999.0,  999.0,   -0.6,   -2.1,  999.0,  999.0,  999.0,  999.0,  999.0,  999.0,    7.3,  999.0,  999.0,  999.0,  999.0,  999.0,  999.0,  999.0,  999.0,  999.0,  999.0,  999.0,  999.0,  999.0,  999.0,  999.0,   42.6,   40.6,   42.1,   42.5,  999.0,  999.0,  999.0,   42.8,  999.0,   41.5,  999.0,   41.8,   43.7,  999.0,  999.0,  999.0,  999.0,  999.0,  999.0,  999.0
2000/12/29 02:20,  999.0,    1.3,    1.0,    0.7,    0.3,    0.1,   -0.5,   -1.4,  999.0,  999.0,   -1.9,  999.0,   -3.7,   -3.3,  999.0,  999.0,  999.0,  999.0,  999.0,  999.0,   13.5,    8.8,  999.0,  999.0,  999.0,  999.0,  999.0,  999.0,  999.0,  999.0,  999.0,  999.0,   41.0,  999.0,   41.4,  999.0,   41.8,   41.9,   41.8,   42.9,   41.9,   41.9,   41.7,   42.4,   41.9,  999.0,   42.0,   42.0,   41.7,   41.8,   41.8,  999.0,   41.5,  999.0,  999.0,  999.0,  999.0,  999.0
2000/12/29 02:30,  999.0,   -0.2,   -0.2,  999.0,    1.3,    0.2,   -0.9,   -2.9,   -6.6,  999.0,  999.0,   -3.3,   -2.2,   -1.3,   -0.5,  999.0,  999.0,    6.7,  999.0,  999.0,   10.6,  999.0,  999.0,  999.0,  999.0,  999.0,  999.0,  999.0,  999.0,  999.0,   29.4,  999.0,   31.4,  999.0,  999.0,  999.0,  999.0,   42.0,   39.5,   41.0,  999.0,   42.0,   42.4,  999.0,   41.3,  999.0,  999.0,  999.0,   41.7,  999.0,  999.0,   42.4,  999.0,  999.0,  999.0,  999.0,  999.0,  999.0
2000/12/29 02:40,  999.0,  999.0,   -0.7,    0.9,    0.1,   -0.3,   -1.3,   -2.8,   -5.9,  999.0,   -3.4,   -2.4,   -3.0,   -2.7,  999.0,   -2.5,  999.0,  999.0,  999.0,  999.0,  999.0,  999.0,  999.0,  999.0,  999.0,  999.0,  999.0,  999.0,  999.0,  999.0,  999.0,  999.0,  999.0,  999.0,  999.0,  999.0,  999.0,  999.0,  999.0,  999.0,   41.5,   35.7,   41.7,   41.4,  999.0,   41.8,   41.8,   41.7,   41.7,   41.6,   42.4,   41.8,   41.8,   41.5,   41.9,  999.0,  999.0,  999.0
2000/12/29 02:50,  999.0,    3.9,    1.3,    0.8,   -0.6,   -0.8,   -1.4,   -3.7,   -7.0,  999.0,  999.0,   -3.5,   -4.2,  999.0,   -2.3,   -2.0,   -1.6,  999.0,  999.0,  999.0,  999.0,  999.0,  999.0,  999.0,  999.0,  999.0,  999.0,  999.0,  999.0,  999.0,  999.0,  999.0,  999.0,  999.0,  999.0,  999.0,  999.0,  999.0,   41.6,  999.0,   41.2,   41.5,   41.8,   41.7,   42.0,  999.0,  999.0,   41.5,   42.4,   41.9,   41.3,  999.0,  999.0,  999.0,  999.0,  999.0,  999.0,  999.0
2000/12/29 03:00,  999.0,   -0.1,    1.5,    0.7,   -1.3,   -2.6,   -4.3,   -5.5,   -4.6,   -5.7,   -4.8,   -4.5,   -5.1,   -3.7,   -3.5,   -2.3,  999.0,  999.0,  999.0,  999.0,  999.0,   11.7,  999.0,  999.0,  999.0,  999.0,  999.0,  999.0,  999.0,  999.0,  999.0,  999.0,  999.0,  999.0,  999.0,   40.9,   41.4,   41.8,  999.0,   41.6,   42.7,   41.9,   42.0,   41.5,   41.1,   41.7,  999.0,   41.8,   42.1,   42.7,   43.1,  999.0,  999.0,  999.0,  999.0,  999.0,  999.0,  999.0
2000/12/29 03:10,  999.0,    1.3,   -0.4,    0.5,   -1.2,   -2.4,   -4.2,   -3.7,   -3.5,   -3.9,   -3.5,   -3.1,  999.0,  999.0,   -2.1,   -1.8,  999.0,  999.0,  999.0,  999.0,  999.0,  999.0,  999.0,  999.0,  999.0,  999.0,  999.0,  999.0,  999.0,  999.0,  999.0,  999.0,  999.0,  999.0,  999.0,  999.0,   42.2,  999.0,  999.0,  999.0,  999.0,   41.8,   41.5,  999.0,   41.5,  999.0,   42.8,   42.7,  999.0,  999.0,   41.7,   41.7,   41.9,  999.0,  999.0,  999.0,  999.0,  999.0
2000/12/29 03:20,  999.0,    3.7,    1.1,    1.0,    0.1,   -1.1,   -3.5,   -1.5,   -3.9,   -4.3,   -3.7,   -3.3,   -4.0,   -4.2,   -1.2,  999.0,  999.0,  999.0,  999.0,    5.8,  999.0,  999.0,  999.0,   20.5,  999.0,  999.0,  999.0,  999.0,  999.0,  999.0,  999.0,   42.1,  999.0,   41.5,   41.1,   41.3,   41.6,   41.9,   42.5,   42.3,   41.6,  999.0,   41.4,  999.0,  999.0,  999.0,   41.5,   41.4,   41.8,   42.7,   42.0,   42.0,  999.0,   42.5,  999.0,   42.2,  999.0,   41.7
2000/12/29 03:30,  999.0,    3.0,    1.6,   -8.1,    0.6,   -0.2,   -2.0,   -1.7,   -2.9,   -3.3,   -3.6,   -3.3,   -3.3,   -5.5,  999.0,   -0.8,  999.0,  999.0,  999.0,  999.0,  999.0,  999.0,  999.0,  999.0,  999.0,  999.0,  999.0,  999.0,  999.0,  999.0,   41.5,   42.5,   41.5,   41.9,  999.0,   42.3,   42.2,   41.6,   41.9,   41.7,   41.7,   42.2,   42.3,   42.3,   41.3,  999.0,   41.6,   41.8,   42.1,   41.9,   42.6,   42.2,  999.0,  999.0,  999.0,  999.0,  999.0,  999.0
2000/12/29 03:40,  999.0,   -1.3,    0.3,   -0.5,   -1.8,    0.3,   -2.0,   -1.8,   -3.3,   -3.3,  999.0,   -2.2,   -2.7,    0.2,  999.0,  999.0,  999.0,  999.0,  999.0,  999.0,  999.0,  999.0,  999.0,  999.0,  999.0,  999.0,  999.0,  999.0,  999.0,  999.0,   37.5,  999.0,   42.2,   41.7,   42.3,   41.8,   42.0,   41.5,   41.8,   42.2,   41.8,  999.0,   41.5,   41.1,  999.0,   41.5,   41.6,   41.5,   41.9,   41.1,   41.6,   41.7,   41.1,  999.0,   42.5,  999.0,   41.9,  999.0
2000/12/29 03:50,  999.0,  999.0,  999.0,    0.3,    0.8,    0.3,    0.8,   -2.3,   -2.9,   -4.1,   -0.3,  999.0,  999.0,    2.1,  999.0,  999.0,  999.0,  999.0,  999.0,  999.0,  999.0,  999.0,  999.0,  999.0,  999.0,  999.0,  999.0,  999.0,  999.0,   42.3,  999.0,   42.5,  999.0,  999.0,   42.1,   42.0,  999.0,   42.1,   42.3,   42.1,   41.9,  999.0,  999.0,   41.4,   40.9,  999.0,   41.3,  999.0,  999.0,   42.0,  999.0,  999.0,   42.4,   41.7,  999.0,  999.0,  999.0,  999.0
2000/12/29 04:00,  999.0,   -0.4,    1.6,    2.9,  999.0,    0.6,  999.0,   -2.1,   -4.5,   -5.2,  999.0,  999.0,  999.0,  999.0,  999.0,    0.4,  999.0,  999.0,  999.0,  999.0,  999.0,  999.0,  999.0,  999.0,  999.0,  999.0,  999.0,  999.0,  999.0,  999.0,  999.0,  999.0,  999.0,  999.0,  999.0,  999.0,  999.0,  999.0,  999.0,  999.0,  999.0,  999.0,  999.0,  999.0,  999.0,  999.0,  999.0,  999.0,  999.0,  999.0,  999.0,  999.0,  999.0,  999.0,  999.0,  999.0,  999.0,  999.0
2000/12/29 04:10,  999.0,   -2.6,    0.1,   -6.1,    2.1,   -1.1,   -0.6,   -2.3,   -3.1,   -1.9,   -2.0,  999.0,  999.0,  999.0,  999.0,  999.0,  999.0,  999.0,  999.0,  999.0,  999.0,  999.0,  999.0,  999.0,  999.0,  999.0,  999.0,  999.0,  999.0,  999.0,  999.0,  999.0,  999.0,  999.0,  999.0,  999.0,  999.0,   41.5,   41.6,  999.0,   40.5,   41.0,   41.9,   41.6,  999.0,  999.0,  999.0,   42.5,   41.8,  999.0,  999.0,  999.0,  999.0,  999.0,  999.0,  999.0,  999.0,  999.0
2000/12/29 04:20,  999.0,  999.0,  999.0,    1.9,    1.2,    0.7,   -0.8,   -2.1,   -2.4,   -2.4,   -2.0,    2.5,   -2.9,  999.0,  999.0,  999.0,  999.0,  999.0,  999.0,  999.0,  999.0,  999.0,  999.0,  999.0,  999.0,  999.0,   23.3,  999.0,  999.0,  999.0,   42.3,  999.0,  999.0,  999.0,   42.4,  999.0,   41.7,   41.8,  999.0,   42.4,   41.4,   40.6,   41.9,   41.8,  999.0,   41.7,   42.1,  999.0,   42.3,   41.2,  999.0,   41.7,   42.1,  999.0,  999.0,  999.0,  999.0,  999.0
2000/12/29 04:30,  999.0,  999.0,  999.0,   -3.9,   -1.9,   11.3,   12.0,    1.2,   -2.4,   -3.2,   -1.5,  999.0,  999.0,   21.3,  999.0,   -1.2,   21.8,  999.0,   21.4,   23.5,   25.2,  999.0,   28.9,   30.1,  999.0,  999.0,  999.0,  999.0,  999.0,  999.0,  999.0,   41.8,   42.0,   41.1,   41.6,  999.0,   42.0,   41.6,  999.0,   41.8,   41.0,   42.0,  999.0,   41.4,  999.0,   42.0,   42.2,   41.9,   41.9,   41.5,   42.0,   42.0,  999.0,  999.0,  999.0,  999.0,  999.0,  999.0
2000/12/29 04:40,  999.0,  999.0,  999.0,  999.0,  999.0,    0.7,    3.2,   -2.1,   -3.9,   -4.8,  999.0,  999.0,  999.0,  999.0,  999.0,  999.0,  999.0,  999.0,  999.0,  999.0,  999.0,  999.0,  999.0,  999.0,  999.0,  999.0,  999.0,  999.0,  999.0,  999.0,   38.8,   40.1,   40.7,   41.4,   41.6,   41.7,   41.9,  999.0,   41.7,   41.7,   41.6,   41.9,  999.0,   42.2,   41.8,   41.5,   41.4,  999.0,  999.0,   41.9,   41.8,  999.0,   41.1,  999.0,  999.0,  999.0,  999.0,  999.0
2000/12/29 04:50,  999.0,  999.0,  999.0,   -1.6,   -0.9,   -1.4,    1.4,   -1.7,   -3.3,   -5.0,  999.0,  999.0,  999.0,  999.0,    0.0,  999.0,  999.0,  999.0,  999.0,  999.0,  999.0,  999.0,  999.0,  999.0,  999.0,  999.0,   34.8,  999.0,  999.0,   39.2,   40.3,   42.4,   41.7,   42.1,   42.0,   41.8,   41.5,   42.0,   42.1,   42.8,   42.5,  999.0,   42.5,   42.6,  999.0,   42.1,   42.0,  999.0,  999.0,   42.1,   42.2,   41.8,   42.0,  999.0,   42.2,  999.0,   41.4,  999.0
2000/12/29 05:00,  999.0,  999.0,  999.0,   -0.1,    0.6,   -0.2,   -1.7,   -3.1,   -4.6,  999.0,  999.0,  999.0,  999.0,  999.0,  999.0,  999.0,  999.0,  999.0,  999.0,   13.8,  999.0,  999.0,  999.0,  999.0,   24.9,  999.0,  999.0,  999.0,   38.5,   37.1,   39.5,   42.2,   41.3,   41.8,   41.8,   41.5,   41.4,  999.0,   41.5,   40.8,   41.6,   41.7,   41.0,   41.2,   41.3,   43.1,   41.2,   41.4,   41.6,   41.2,   41.8,   42.0,   42.2,   41.8,   43.5,   41.3,   42.2,   41.7
2000/12/29 05:10,  999.0,  999.0,  999.0,  999.0,   -1.5,   -3.0,   -4.2,   -5.4,   -6.0,    3.6,  999.0,  999.0,  999.0,  999.0,  999.0,  999.0,  999.0,  999.0,  999.0,   13.4,  999.0,  999.0,  999.0,  999.0,  999.0,  999.0,  999.0,  999.0,   36.0,  999.0,   41.9,   41.9,   42.0,   41.1,   42.0,  999.0,  999.0,   41.5,  999.0,   41.8,   41.3,   41.8,   42.6,   41.2,   41.8,   42.6,   41.9,   41.7,   41.6,  999.0,   41.5,  999.0,   42.0,   41.5,  999.0,  999.0,  999.0,   41.5
2000/12/29 05:20,  999.0,  999.0,  999.0,  999.0,  999.0,  999.0,   -0.2,   -4.0,   -6.1,  999.0,  999.0,  999.0,  999.0,  999.0,  999.0,  999.0,  999.0,  999.0,  999.0,  999.0,  999.0,  999.0,  999.0,  999.0,  999.0,  999.0,  999.0,  999.0,  999.0,  999.0,  999.0,   41.8,  999.0,   30.5,   42.2,   41.7,   41.7,  999.0,  999.0,   41.8,   33.8,   41.7,   42.1,  999.0,  999.0,  999.0,   41.4,   41.8,   41.6,   41.9,  999.0,   41.4,  999.0,   41.8,   42.2,  999.0,   42.2,   40.8
2000/12/29 05:30,  999.0,  999.0,  999.0,  999.0,  999.0,  999.0,   -2.7,   -3.7,  999.0,  999.0,  999.0,  999.0,  999.0,  999.0,  999.0,  999.0,  999.0,  999.0,  999.0,  999.0,  999.0,  999.0,  999.0,  999.0,  999.0,  999.0,  999.0,  999.0,  999.0,  999.0,   42.3,   40.6,   41.7,  999.0,   40.5,   41.7,   41.6,   42.1,   42.5,   42.1,   41.9,   41.9,   42.0,  999.0,   42.2,   42.3,   41.8,   41.8,   41.6,   42.2,   42.5,   42.3,   41.9,   41.5,  999.0,   41.8,   41.9,   42.7
2000/12/29 05:40,  999.0,   -0.1,  999.0,  999.0,  999.0,    0.2,   -1.2,   -4.2,   -0.2,    2.0,  999.0,  999.0,  999.0,   -3.6,  999.0,  999.0,  999.0,  999.0,  999.0,  999.0,  999.0,  999.0,  999.0,  999.0,  999.0,  999.0,  999.0,  999.0,  999.0,  999.0,  999.0,  999.0,  999.0,  999.0,  999.0,  999.0,  999.0,  999.0,  999.0,  999.0,  999.0,  999.0,  999.0,  999.0,  999.0,  999.0,  999.0,  999.0,  999.0,  999.0,  999.0,  999.0,  999.0,  999.0,  999.0,  999.0,  999.0,  999.0
2000/12/29 05:50,  999.0,   -1.6,   -3.8,    0.6,    1.1,    0.9,   -2.5,   -5.4,    2.0,    3.6,    3.6,  999.0,  999.0,  999.0,  999.0,  999.0,  999.0,  999.0,    2.5,    5.7,  999.0,  999.0,  999.0,  999.0,  999.0,  999.0,  999.0,  999.0,  999.0,  999.0,  999.0,  999.0,  999.0,  999.0,   -1.9,  999.0,  999.0,  999.0,  999.0,  999.0,  999.0,  999.0,  999.0,  999.0,  999.0,  999.0,  999.0,  999.0,  999.0,  999.0,  999.0,  999.0,   20.7,  999.0,  999.0,  999.0,  999.0,  999.0
2000/12/29 06:00,  999.0,  999.0,   -4.7,    0.5,   -3.2,   -2.0,   -3.5,   -3.0,   -4.6,   -5.7,   -5.8,  999.0,  999.0,   -6.9,  999.0,  999.0,  999.0,  999.0,  999.0,  999.0,  999.0,  999.0,  999.0,  999.0,    1.7,  999.0,  999.0,  999.0,  999.0,  999.0,  999.0,  999.0,  999.0,  999.0,  999.0,  999.0,  999.0,   -4.2,   -4.6,   -4.4,  999.0,  999.0,   -1.3,  999.0,   -0.8,  999.0,   -0.8,  999.0,   -0.3,  999.0,   -0.6,   -0.7,  999.0,   -1.2,  999.0,   -0.7,  999.0,  999.0
2000/12/29 06:10,  999.0,    3.0,    2.4,    0.7,   -4.1,   -2.9,   -5.6,   -6.7,   -4.9,  999.0,   -3.2,   -4.0,   -5.0,   -8.9,   -7.6,  999.0,  999.0,  999.0,  999.0,  999.0,  999.0,  999.0,  999.0,  999.0,  999.0,  999.0,  999.0,  999.0,  999.0,  999.0,  999.0,  999.0,  999.0,  999.0,  999.0,  999.0,  999.0,  999.0,  999.0,   -4.2,  999.0,  999.0,  999.0,   -1.1,   -1.2,  999.0,  999.0,  999.0,   -1.9,   -2.7,   -1.8,   -1.5,  999.0,  999.0,   -1.5,  999.0,   -0.6,   -0.6
2000/12/29 06:20,  999.0,    7.0,   -0.9,    0.1,    1.1,    1.8,   -0.9,   -4.9,   -2.4,   -3.7,   -2.4,   -9.0,   -7.6,   -2.6,  -22.0,  999.0,  999.0,  999.0,  999.0,  -19.8,  999.0,    3.2,  999.0,  999.0,  -16.7,  999.0,  999.0,  -15.4,  999.0,  -13.2,  999.0,  999.0,  999.0,  999.0,  999.0,  999.0,  999.0,  999.0,  999.0,   -8.3,   -7.3,   -6.7,  999.0,   -5.6,  999.0,   -4.9,  999.0,  999.0,  999.0,  999.0,  999.0,  999.0,  999.0,  999.0,  999.0,  999.0,  999.0,  999.0
2000/12/29 06:30,  999.0,   -2.6,    0.8,    1.1,    2.5,   -0.2,   -1.7,   -0.5,   -1.1,   -0.9,   -0.1,   -0.2,  999.0,   -6.9,   -7.0,  999.0,  999.0,  999.0,  999.0,  999.0,  999.0,  999.0,  999.0,  999.0,  999.0,  999.0,  999.0,  999.0,  -21.9,  999.0,  999.0,  999.0,  999.0,  999.0,  999.0,  999.0,  999.0,  999.0,  999.0,  999.0,  999.0,  999.0,  999.0,  999.0,  999.0,  999.0,  999.0,  999.0,  999.0,  999.0,  999.0,  999.0,  999.0,  999.0,  999.0,  999.0,  999.0,  999.0
2000/12/29 06:40,  999.0,  999.0,   -1.6,    0.7,   -0.4,   -0.8,   -1.8,   -0.6,  999.0,   -0.5,    0.8,    1.7,   -1.7,   -4.3,  999.0,   -8.3,  999.0,  999.0,  999.0,  999.0,  999.0,    1.5,  999.0,  999.0,  999.0,  999.0,  999.0,  999.0,  999.0,  999.0,  999.0,    1.3,  999.0,  999.0,  999.0,  999.0,  999.0,  999.0,  999.0,  999.0,  999.0,  999.0,  999.0,  999.0,  999.0,  999.0,  999.0,  999.0,  999.0,  999.0,  999.0,  999.0,  999.0,  999.0,  999.0,  999.0,  999.0,  999.0
2000/12/29 06:50,  999.0,    4.5,   -2.5,    3.0,    0.9,   -2.3,   -0.3,   -0.9,   -2.3,   -2.7,   -1.4,    1.3,    1.3,   -4.6,   -1.2,   -1.3,   -6.1,  999.0,    8.2,  999.0,  999.0,  999.0,  999.0,  999.0,  999.0,  999.0,  999.0,  999.0,  999.0,  999.0,  999.0,  999.0,  999.0,  999.0,  999.0,  999.0,  999.0,  999.0,  999.0,  999.0,  999.0,  999.0,  999.0,  999.0,  999.0,  999.0,  999.0,  999.0,  999.0,  999.0,  999.0,  999.0,  999.0,  999.0,  999.0,  999.0,  999.0,  999.0
2000/12/29 07:00,  999.0,  999.0,    6.8,    1.9,    0.7,    0.6,   -1.9,   -3.2,   -1.2,   -1.6,   -0.0,    0.5,    1.6,    6.5,    7.9,    6.3,    4.2,    7.7,  999.0,  999.0,  -10.5,  999.0,   22.1,  999.0,   25.3,   26.2,  999.0,  999.0,  999.0,  999.0,  999.0,  999.0,  999.0,  999.0,   37.0,  999.0,  999.0,   18.6,  999.0,  999.0,  999.0,  999.0,  999.0,  999.0,  999.0,  999.0,   42.2,  999.0,   41.5,  999.0,  999.0,  999.0,  999.0,  999.0,   41.5,  999.0,   42.1,   20.2
2000/12/29 07:10,  999.0,    1.4,    0.8,   -1.7,   -0.7,   -1.2,    0.9,    0.5,   -1.1,   -0.9,   -1.6,   -0.1,    1.8,  999.0,  999.0,   -0.3,    3.6,    4.2,    8.3,  999.0,  999.0,  999.0,  999.0,  999.0,  999.0,  999.0,   43.4,   31.5,   37.4,  999.0,   38.2,  999.0,   41.8,  999.0,   39.1,  999.0,   40.5,   41.6,   41.7,   42.1,   42.8,   42.4,   42.4,   42.8,   42.4,   42.0,  999.0,   41.6,   42.4,  999.0,   42.2,  999.0,  999.0,  999.0,   41.9,   42.0,   41.7,   42.5
2000/12/29 07:20,  999.0,  999.0,    0.7,   -0.0,    1.5,   -1.0,   -1.1,   -3.5,   -2.7,   -3.0,   -0.3,   -2.1,    3.1,    6.6,    3.0,    5.4,   11.4,   10.2,   12.8,    5.9,  999.0,  999.0,  999.0,  999.0,   32.8,   32.1,   34.8,  999.0,   36.0,   36.6,  999.0,   37.9,  999.0,   39.0,   40.7,   41.6,   42.4,  999.0,   42.6,   42.7,   42.3,   42.5,   31.7,   42.3,   42.2,   42.6,  999.0,   42.9,  999.0,   42.7,   42.1,  999.0,  999.0,  999.0,  999.0,   42.0,   42.1,   41.9
2000/12/29 07:30,  999.0,    0.8,    0.7,    0.1,    1.4,   -1.6,   -2.2,   -2.3,   -4.5,   -3.7,    0.9,   -1.5,  999.0,  999.0,   -0.7,  999.0,  999.0,  999.0,  999.0,  999.0,  999.0,  999.0,  999.0,   30.7,  999.0,   32.0,  999.0,   34.4,   36.4,   35.9,  999.0,   39.8,  999.0,  999.0,   42.5,   42.7,   43.0,   42.3,   42.6,   42.6,  999.0,   42.2,  999.0,   42.8,   42.5,   42.1,   42.6,   42.5,   41.9,  999.0,   42.3,   42.2,   42.3,   42.4,   42.3,  999.0,  999.0,   42.2
2000/12/29 07:40,  999.0,    1.7,    1.3,    1.4,    1.0,   -1.9,   -3.1,   -4.8,   -5.0,   -4.2,  999.0,  999.0,  999.0,  999.0,  999.0,  999.0,  999.0,  999.0,  999.0,  999.0,  999.0,  999.0,   31.3,  999.0,  999.0,   34.7,   34.6,   32.6,   35.0,  999.0,   35.9,   35.8,   34.0,   40.1,   42.7,   42.0,   36.5,   40.0,   38.9,   39.6,   41.7,   41.8,  999.0,   42.3,   42.2,   41.6,   41.7,  999.0,   42.4,   42.8,   42.2,   41.8,   42.3,   42.5,  999.0,   42.5,   42.1,   42.5
2000/12/29 07:50,  999.0,    1.9,    1.9,    0.4,    2.0,   -1.1,   -3.6,   -4.4,  999.0,  999.0,  999.0,   -1.4,    0.6,    1.3,    1.3,  999.0,  999.0,  999.0,   26.8,  999.0,  999.0,   30.6,   31.7,   32.9,   35.5,   36.2,   38.0,   38.0,   40.7,  999.0,   41.5,   41.1,   41.0,   42.0,   41.0,   41.5,   41.8,   41.6,  999.0,   41.5,   41.5,   41.8,  999.0,  999.0,   41.6,   41.6,   40.7,   41.0,   41.0,   41.8,   41.3,   41.3,  999.0,   41.5,   41.5,   41.5,   42.3,   41.7
2000/12/29 08:00,  999.0,    0.7,    0.8,    0.2,    0.1,   -0.3,   -3.7,   -4.4,   -4.1,  999.0,  999.0,  999.0,  999.0,  999.0,  999.0,  999.0,  999.0,  999.0,  999.0,  999.0,   27.6,  999.0,   32.8,  999.0,   39.3,   37.4,   39.3,   39.3,   40.2,   41.8,  999.0,   41.9,   42.1,   41.9,   42.3,   41.8,   42.0,   41.1,   41.6,   42.1,   42.5,   42.0,   42.0,   41.3,   41.4,   41.7,   42.1,   42.0,   42.0,   41.9,  999.0,   42.0,   42.4,   42.0,   41.9,   42.0,   42.5,  999.0
2000/12/29 08:10,  999.0,    0.5,    1.5,    1.1,    1.2,    0.2,   -0.7,   -2.1,   -3.3,   -2.2,  999.0,    2.5,  999.0,  999.0,  999.0,  999.0,  999.0,  999.0,  999.0,   31.8,   32.4,   34.0,   36.0,   38.0,   37.9,  999.0,   40.7,   41.3,   42.0,   41.5,   41.8,  999.0,   42.1,   42.7,   41.3,   41.9,   41.9,   42.0,   41.9,   41.3,   41.4,   41.8,   41.8,   41.8,   42.1,   42.2,   41.7,   42.1,   42.1,  999.0,   41.2,   41.5,   41.6,   41.7,   41.6,   41.9,   42.2,   42.0
2000/12/29 08:20,  999.0,    0.4,   -0.1,    1.3,    2.3,   -0.6,   -1.2,   -3.8,   -2.6,   -2.8,    0.3,  999.0,  999.0,  999.0,  999.0,  999.0,  999.0,  999.0,  999.0,  999.0,   31.7,   33.4,   35.4,   36.4,   39.7,   41.8,   42.1,   41.8,   40.9,   41.6,   42.1,   41.7,   41.6,   41.9,   41.5,   42.1,   41.8,   42.0,   42.1,   41.2,   41.2,   41.5,   41.7,   41.6,   41.9,   42.1,   42.2,   41.6,   41.7,   42.2,   41.7,   41.5,   41.8,  999.0,   41.3,   41.9,   41.6,   43.0
2000/12/29 08:30,  999.0,    0.8,   -0.6,    0.5,    0.1,   -0.7,   -2.7,   -3.7,  999.0,  999.0,  999.0,  999.0,  999.0,  999.0,  999.0,  999.0,  999.0,  999.0,  999.0,  999.0,  999.0,  999.0,   32.3,   34.8,   35.2,   40.5,   40.7,   40.1,   40.1,   41.7,  999.0,   42.2,   41.8,   42.0,  999.0,   41.7,  999.0,  999.0,  999.0,   42.4,  999.0,   41.9,  999.0,   41.9,  999.0,   41.7,  999.0,  999.0,   41.6,   41.4,   42.1,   41.5,  999.0,   41.2,   41.8,  999.0,  999.0,   41.8
2000/12/29 08:40,  999.0,    0.3,    0.4,    0.1,    0.4,   -0.7,   -2.4,  999.0,  999.0,  999.0,  999.0,  999.0,  999.0,  999.0,  999.0,  999.0,  999.0,  999.0,  999.0,  999.0,  999.0,   29.8,   31.7,   32.4,   34.4,   36.2,   37.3,   38.2,   38.6,   39.6,   40.8,   42.3,  999.0,  999.0,  999.0,   41.5,   41.9,   41.5,   42.1,   42.1,   41.7,   42.4,   42.1,   42.1,   42.2,   42.4,  999.0,   41.5,   41.6,   41.3,  999.0,   42.9,   42.3,   41.7,   41.6,   42.1,   41.9,   42.4
2000/12/29 08:50,  999.0,    0.1,    0.4,    1.2,    0.2,   -0.1,   -3.5,   -4.0,  999.0,  999.0,  999.0,  999.0,  999.0,  999.0,  999.0,  999.0,  999.0,  999.0,  999.0,  999.0,  999.0,  999.0,   30.6,   31.9,  999.0,   34.8,   36.4,   37.1,   38.1,   40.5,   39.9,   41.2,   42.2,   41.9,   41.8,   41.4,   41.9,  999.0,   41.4,   41.4,   41.4,   42.1,   41.7,   41.8,   41.9,   42.1,   42.0,   41.8,   41.8,   41.3,   41.5,   42.2,  999.0,   41.6,   41.4,   41.6,   42.1,  999.0
2000/12/29 09:00,  999.0,   -2.0,   -1.5,    0.0,   -1.4,   -2.5,   -5.0,  999.0,   -5.3,  999.0,   -1.6,  999.0,  999.0,  999.0,  999.0,  999.0,  999.0,  999.0,  999.0,  999.0,  999.0,  999.0,  999.0,   30.3,   32.9,   32.7,   34.9,   36.9,   36.3,   38.3,   39.5,   41.4,   41.7,   42.7,   41.7,  999.0,   42.2,   41.5,   41.6,   41.5,   41.8,   42.4,   41.7,   41.1,   41.6,   41.6,   42.0,   41.4,   41.6,   41.6,   41.9,   42.3,   41.8,   41.9,   41.9,   41.9,   42.1,   41.0
2000/12/29 09:10,  999.0,    0.7,   -1.7,   -0.8,   -1.7,   -4.3,   -4.1,   -2.5,   -5.1,  999.0,  999.0,  999.0,  999.0,  999.0,  999.0,  999.0,  999.0,  999.0,  999.0,  999.0,  999.0,  999.0,   30.6,  999.0,   34.0,   35.8,   38.3,   36.9,   37.9,   40.0,   39.9,   41.9,   41.7,   41.7,   42.1,   41.7,   41.4,   42.0,   42.1,   41.8,   42.1,   41.7,   41.3,  999.0,  999.0,   41.7,   41.4,   41.5,   41.9,   42.0,   42.2,   42.0,   41.4,   42.0,   42.1,   41.7,   42.5,   42.1
2000/12/29 09:20,  999.0,   -2.0,   -1.0,   -1.3,   -2.0,   -2.7,   -5.2,   -4.7,   -3.8,   -3.4,   -4.8,   -8.1,  999.0,  999.0,  999.0,  999.0,  999.0,  999.0,  999.0,  999.0,  999.0,   31.2,   32.6,   33.0,   35.8,   37.8,   38.2,   41.1,   40.4,   41.6,   41.8,   41.9,   41.9,   41.6,   41.7,   41.9,   41.8,   42.2,   41.6,   41.7,   41.9,   42.3,   41.7,   41.8,   41.9,  999.0,   42.3,   42.6,   41.0,   41.0,  999.0,   41.4,   42.1,   41.4,   41.6,   41.5,   41.7,   41.4
2000/12/29 09:30,  999.0,    0.0,   -1.7,   -1.1,   -2.1,   -2.9,   -3.9,   -3.5,   -4.0,  999.0,  999.0,  999.0,  999.0,  999.0,  999.0,  999.0,  999.0,  999.0,  999.0,  999.0,  999.0,   31.2,   32.8,   34.2,   35.8,   37.1,   38.9,   40.3,   41.5,   41.6,   41.6,   41.7,   41.7,   42.3,   42.3,   42.0,   41.4,   41.7,   42.4,   41.5,   41.1,   41.9,   41.7,   41.9,   41.8,   41.8,   41.7,   41.6,  999.0,   41.8,   41.8,   41.9,   42.0,   41.4,   41.2,   41.5,   42.1,   41.7
2000/12/29 09:40,  999.0,   -0.1,    0.9,   -0.7,   -2.0,   -4.1,   -2.6,   -1.9,   -1.4,  999.0,  999.0,  999.0,  999.0,  999.0,  999.0,  999.0,  999.0,  999.0,  999.0,  999.0,   30.6,   30.2,   32.7,   33.6,   36.3,   39.9,   38.6,   41.6,   40.3,   40.7,   41.9,   41.8,   41.3,   42.1,   41.8,   41.5,   41.4,   41.7,   41.8,   41.5,   41.7,   41.6,   41.7,   41.8,   41.9,   41.7,   41.9,   41.9,   41.8,   41.7,   42.0,   42.2,   42.0,   41.8,  999.0,   42.1,   41.8,  999.0
2000/12/29 09:50,  999.0,  999.0,   -0.8,   -1.9,   -4.9,   -4.0,   -2.7,   -2.7,   -3.2,  999.0,  999.0,    5.6,  999.0,  999.0,  999.0,  999.0,  999.0,   13.2,    0.6,   15.1,   32.0,   33.7,   35.9,  999.0,   39.7,   41.9,   41.3,   41.2,   21.5,   42.4,   41.9,   41.5,   42.1,   41.3,   41.4,   42.2,   41.6,   42.3,   41.8,   41.8,  999.0,   41.4,   41.8,   41.9,   41.9,   41.8,   41.8,   41.9,   41.7,   42.1,   41.7,   42.1,   42.3,   41.9,   42.1,   41.5,   41.7,   41.7
2000/12/29 10:00,  999.0,   -1.8,   -2.4,   -1.6,   -4.1,   -3.6,   -2.3,   -3.0,   -4.7,  999.0,  999.0,  999.0,  999.0,  999.0,  999.0,  999.0,  999.0,  999.0,  999.0,  999.0,   29.5,  999.0,   33.3,   34.9,   37.2,   38.2,   40.3,   42.1,   42.0,   41.6,   42.0,   41.6,   41.8,   42.2,   41.9,   41.9,   41.8,   41.8,   41.1,  999.0,   41.9,   41.6,   41.8,   41.9,   42.1,   41.8,   41.6,   41.3,   41.6,   41.6,   41.5,   41.9,   41.5,   42.0,   41.8,   42.2,   41.9,   41.7
2000/12/29 10:10,  999.0,   -0.7,   -1.1,   -2.5,   -3.2,   -2.1,   -1.3,   -0.7,    3.4,  999.0,   -2.6,  999.0,  999.0,  999.0,  999.0,  999.0,  999.0,  999.0,  999.0,   28.4,  999.0,   32.4,   33.0,   37.2,  999.0,   39.3,   38.6,  999.0,   42.2,   41.7,   42.3,   41.9,   20.1,   41.5,   41.7,   20.7,   41.9,  999.0,   27.6,   20.8,   42.0,   41.7,    5.6,   17.3,   41.9,   13.1,  999.0,   15.7,   22.3,   40.9,  999.0,   41.7,   42.3,    2.2,   42.0,  999.0,  999.0,   14.8
2000/12/29 10:20,  999.0,   -1.5,   -0.9,   -1.7,   -2.3,   -3.4,   -4.2,   -2.6,   -3.1,  999.0,  999.0,  999.0,    3.6,  999.0,  999.0,  999.0,  999.0,  999.0,  999.0,  999.0,  999.0,  999.0,  999.0,   34.0,   35.1,   37.6,   38.5,   39.3,   41.0,   41.1,   40.9,   41.6,   42.0,   41.9,   42.5,   41.7,   41.9,   42.3,   41.9,  999.0,   42.2,   41.9,   41.5,   41.7,   41.5,   42.0,   41.6,   42.3,   42.2,   42.0,   42.1,   42.0,   41.9,   41.8,   42.1,   41.8,   41.9,   42.3
2000/12/29 10:30,  999.0,   -1.6,   -1.9,   -2.2,   -3.3,   -4.8,   -3.5,   -3.2,   -2.9,  999.0,   -4.8,   -5.9,   -7.8,  999.0,  999.0,  999.0,  999.0,  999.0,  999.0,  999.0,  999.0,  999.0,  999.0,   34.4,   36.0,   35.0,   39.1,   40.4,   41.3,   41.9,   41.9,   41.5,   41.4,   41.4,   42.0,   41.6,   41.6,   41.8,   42.3,   42.0,   41.8,   41.9,   41.7,   41.7,   41.7,   41.9,   41.4,   41.8,   41.7,   41.9,   42.3,   41.8,   42.4,   42.6,   41.9,   41.6,   42.1,   41.5
2000/12/29 10:40,  999.0,   -1.6,   -3.4,   -3.0,   -3.1,   -1.8,   -2.4,   -2.5,   -2.5,   -3.5,  999.0,  999.0,  999.0,  999.0,  999.0,  999.0,  999.0,  999.0,  999.0,  999.0,   32.0,  999.0,   33.7,   35.9,   38.7,   40.5,   42.1,   41.8,   42.0,   42.1,   41.6,   41.6,   42.0,   41.2,   42.1,   41.4,   41.7,   41.8,  999.0,   41.9,   41.6,   41.6,   42.1,   41.6,   41.7,   41.5,   41.7,   42.2,   41.9,   41.9,   41.9,   41.5,   41.3,   41.7,   41.7,   41.3,   42.0,   41.5
2000/12/29 10:50,  999.0,   -0.8,   -2.1,   -3.3,   -3.1,   -4.6,   -2.9,   -1.9,   -3.6,   -4.3,   -0.4,   -1.6,  999.0,  999.0,  999.0,  999.0,   10.1,  999.0,  999.0,  999.0,  999.0,  999.0,  999.0,   36.2,   38.0,   40.5,   41.4,   41.7,   41.4,   41.6,   41.8,   41.9,   41.4,   42.0,   42.1,   42.1,   42.4,   41.8,   42.2,   41.8,   41.9,   41.9,  999.0,   41.9,   41.7,   41.9,   42.2,   41.7,   41.5,   41.5,   42.1,   41.9,   41.6,   41.7,   41.6,   41.7,   41.5,   42.1
2000/12/29 11:00,  999.0,   -2.4,   -1.8,   -2.3,   -2.9,   -2.6,   -1.9,   -2.8,   -1.3,   -2.3,  999.0,   -0.1,  999.0,  999.0,  999.0,  999.0,  999.0,  999.0,  999.0,  999.0,  999.0,  999.0,  999.0,   39.6,   41.8,   41.6,   42.0,  999.0,   41.8,   41.7,   41.8,   41.7,   42.8,   42.3,   41.9,   42.1,   42.3,   41.7,   41.6,   41.7,   41.6,   41.7,   41.7,   41.7,   41.9,   41.7,   41.9,   41.8,   41.9,   41.2,   41.9,   41.9,   41.5,   41.5,   41.6,  999.0,   41.7,   42.1
2000/12/29 11:10,  999.0,   -1.5,   -0.8,   -2.4,   -2.4,   -2.6,   -1.6,   -2.6,   -1.9,   -0.2,    3.6,    0.1,  999.0,  999.0,  999.0,  999.0,  999.0,  999.0,  999.0,  999.0,  999.0,   27.2,  999.0,   35.9,   37.7,   40.2,   41.5,   41.9,   41.7,   41.5,   41.8,   41.3,   41.7,   42.2,   41.7,   42.0,   42.0,   41.8,   42.1,   41.8,   41.8,   42.0,   42.1,   41.4,   41.8,   41.9,   42.0,   42.2,   42.3,   41.9,   42.4,   41.7,  999.0,   41.9,   41.2,   41.4,   42.0,   42.1
2000/12/29 11:20,  999.0,   -3.1,   -2.3,   -2.4,   -2.4,   -1.7,   -1.9,   -1.5,   -1.9,   -2.0,   -3.2,    4.5,  999.0,    6.7,  999.0,  999.0,  999.0,  999.0,  999.0,  999.0,  999.0,   31.2,  999.0,   35.7,   37.4,   38.0,   39.6,   40.1,   40.2,   41.8,   41.5,   41.7,   42.1,   42.0,   41.9,   41.9,   41.9,   41.6,   41.9,   41.9,   41.4,   42.0,   42.0,   42.1,   42.0,   41.3,   42.0,   41.5,   41.9,   41.7,   41.7,   41.6,   41.5,   41.8,   41.6,   42.2,   42.0,   42.0
2000/12/29 11:30,  999.0,   -2.1,   -2.0,   -1.5,   -2.1,   -2.2,   -1.2,   -0.9,   -0.3,   -3.8,   -2.0,  999.0,  999.0,  999.0,  999.0,  999.0,  999.0,  999.0,  999.0,  999.0,   33.4,   35.9,   35.6,  999.0,   38.7,   40.5,   41.8,   41.9,   41.9,   41.8,   42.1,   41.7,   41.4,  999.0,   41.7,   41.9,  999.0,   41.7,   41.4,   41.6,   42.0,   41.9,   41.9,   41.9,   41.9,   41.8,   42.0,   41.9,   41.7,   41.7,   41.6,   41.9,   41.8,   41.7,   42.0,   42.1,   42.0,   41.7
2000/12/29 11:40,  999.0,   -0.7,   -1.4,   -1.3,   -1.2,   -1.2,   -1.2,   -0.5,   -0.6,   -2.0,   -0.0,  999.0,  999.0,  999.0,  999.0,  999.0,  999.0,  999.0,  999.0,   27.5,   29.3,   30.8,  999.0,   10.3,   35.2,   13.1,   11.2,   15.3,   12.8,   27.9,   15.0,   41.9,   40.6,   19.0,   30.1,   30.6,   42.0,   41.5,   41.9,   41.6,   41.4,   41.5,   41.7,   41.7,   20.5,   20.0,   20.2,   23.2,   31.4,   27.8,   20.7,   42.0,   27.5,   27.8,    5.1,  999.0,   35.2,   21.0
2000/12/29 11:50,  999.0,   -1.6,   -1.8,   -2.4,   -2.3,   -2.1,   -1.0,   -0.7,   -1.0,   -1.5,    4.1,  999.0,  999.0,  999.0,  999.0,  999.0,  999.0,  999.0,  999.0,  999.0,  999.0,  999.0,  999.0,  999.0,   30.6,   33.1,  999.0,   37.3,   34.1,   38.5,   40.7,   40.0,   40.5,   41.3,   41.3,   41.8,   42.1,   42.3,   41.9,   41.8,   41.7,   41.6,   41.8,   42.2,   42.2,   41.7,   41.7,   41.6,   41.8,   41.6,   41.8,   41.9,   41.8,   41.6,   41.8,   42.1,   42.4,   41.6
